Home   Weather   Valverde   Past weeks
Flag for Spain

Past Weather in Valverde, Canary Islands, Spain — Yesterday and Last 2 Weeks

Now
70 °F

Partly sunny.


Feels Like: 70 °F
Forecast: 67 / 65 °F
Wind: 13 mph from North

Location: Hierro / Aeropuerto

Current Time: Oct 23, 2019 at 9:11:30 am

Latest Report: Oct 23, 2019 at 8:30 am


Visibility: N/A

Pressure: 30.07 "Hg (28.14 "Hg at 571m altitude)

Humidity: 60%

Dew Point: 55 °F

Location of ValverdeLocation

Past Weather in Valverde — Graph

°F

Valverde Temperature Yesterday

Maximum temperature yesterday: 75 °F (at 12:00 pm)
Minimum temperature yesterday: 70 °F (at 12:00 am)
Average temperature yesterday: 72 °F

High & Low Weather Summary for the Past Weeks

 TemperatureHumidityPressure
High81 °F (Oct 10, 12:30 pm)94% (Oct 14, 5:30 am)30.18 "Hg (Oct 14, 5:30 am)
Low68 °F (Oct 23, 5:30 am)29% (Oct 22, 12:00 pm)29.98 "Hg (Oct 12, 6:00 pm)
Average73 °F70%30.08 "Hg
* Reported Oct 8 7:00 am — Oct 23 7:30 am, Valverde. Weather by CustomWeather, © 2019

Note: Actual official high and low records may vary slightly from our data, if they occured in-between our weather recording intervals... More about our weather records

Advertising

Valverde Weather History for the Previous 24 Hours

Scroll right to see more
 ConditionsComfort  
Time TempWeatherWind HumidityBarometerVisibility
7:30 am
Wed, Oct 23
70 °FPartly cloudy.7 mph60%30.07 "HgN/A
7:00 am68 °FPartly cloudy.18 mph73%30.07 "HgN/A
6:30 am70 °FPartly cloudy.8 mph60%30.07 "HgN/A
6:00 am68 °FPartly cloudy.7 mph64%30.07 "HgN/A
5:30 am68 °FPassing clouds.25 mph78%30.07 "HgN/A
5:00 am70 °FPassing clouds.12 mph57%30.07 "HgN/A
4:30 am70 °FPassing clouds.12 mph57%30.07 "HgN/A
4:00 am70 °FOvercast.14 mph60%30.07 "HgN/A
3:30 am70 °FOvercast.15 mph64%30.07 "HgN/A
3:00 am70 °FOvercast.12 mph69%30.07 "HgN/A
2:30 am70 °FMostly cloudy.9 mph69%30.09 "HgN/A
2:00 am70 °FOvercast.14 mph64%30.09 "HgN/A
1:30 am70 °FPassing clouds.16 mph64%30.09 "HgN/A
1:00 am72 °FPassing clouds.14 mph53%30.09 "HgN/A
12:30 am72 °FPassing clouds.12 mph53%30.09 "HgN/A
12:00 am72 °FPassing clouds.15 mph61%30.09 "HgN/A
11:30 pm
Tue, Oct 22
72 °FOvercast.13 mph57%30.09 "HgN/A
11:00 pm72 °FOvercast.18 mph65%30.12 "HgN/A
10:30 pm72 °FPartly cloudy.17 mph61%30.09 "HgN/A
10:00 pm72 °FPassing clouds.10 mph65%30.09 "HgN/A
9:30 pm70 °FPassing clouds.12 mph69%30.09 "HgN/A
9:00 pm70 °FOvercast.14 mph69%30.09 "HgN/A
8:30 pm72 °FOvercast.14 mph65%30.09 "HgN/A
8:00 pm72 °FOvercast.14 mph65%30.07 "HgN/A
7:30 pm72 °FOvercast.15 mph61%30.07 "HgN/A
7:00 pm72 °FOvercast.15 mph61%30.07 "HgN/A
6:30 pm72 °FScattered clouds.17 mph69%30.07 "HgN/A
6:00 pm72 °FScattered clouds.17 mph61%30.07 "HgN/A
5:30 pm73 °FPassing clouds.15 mph57%30.07 "HgN/A
5:00 pm73 °FPassing clouds.13 mph57%30.07 "HgN/A
4:30 pm75 °FScattered clouds.14 mph50%30.07 "HgN/A
4:00 pm73 °FScattered clouds.16 mph57%30.07 "HgN/A
3:30 pm75 °FPassing clouds.16 mph54%30.09 "HgN/A
3:00 pm75 °FPassing clouds.15 mph47%30.09 "HgN/A
2:30 pm75 °FPassing clouds.9 mph47%30.12 "HgN/A
2:00 pm72 °FScattered clouds.9 mph65%30.12 "HgN/A
1:30 pm75 °FScattered clouds.13 mph47%30.12 "HgN/A
1:00 pm72 °FScattered clouds.15 mph57%30.15 "HgN/A
12:30 pm73 °FPassing clouds.16 mph53%30.15 "HgN/A
12:00 pm75 °FPassing clouds.14 mph29%30.15 "HgN/A
11:30 am73 °FPassing clouds.16 mph53%30.15 "HgN/A
11:00 am72 °FScattered clouds.14 mph57%30.15 "HgN/A
10:30 am73 °FPassing clouds.16 mph57%30.12 "HgN/A
10:00 am73 °FPassing clouds.16 mph47%30.12 "HgN/A
9:30 am72 °FPassing clouds.17 mph50%30.12 "HgN/A
9:00 am72 °FPassing clouds.18 mph53%30.12 "HgN/A
Weather by CustomWeather, © 2019

See weather overview